Cloquet, MN

11:42 AM CDT on August 20, 2017 (GMT -0500)
Cloquet Carlton County

Weather History for KCOQ - January, 2013

Change the Weather History Date:

Sunday, January 20, 2013

  Actual Average Record
Temperature  
Mean Temperature -6 °F -  
Max Temperature 0 °F 16 °F 35 °F (2017)
Min Temperature -11 °F 1 °F -18 °F (2008)
Degree Days  
Heating Degree Days 70    
Moisture  
Dew Point -14 °F    
Average Humidity 67    
Maximum Humidity 77    
Minimum Humidity 51    
Precipitation  
Precipitation 0.00 in - - ()
Sea Level Pressure  
Sea Level Pressure 30.18 in    
Wind  
Wind Speed 9 mph (West)    
Max Wind Speed 14 mph    
Max Gust Speed 21 mph    
Visibility 9 miles    
Events Snow    
Averages and records for this station are not official NWS values.
T = Trace of Precipitation, MM = Missing Value Source: NWS Daily Summary

Daily Weather History Graph

Daily Weather History Graph

Search for Another Location

Airport or City:

Trip Planner

Search our weather history database for the weather conditions in past years. The results will help you decide how hot, cold, wet, or windy it might be!

Date:

Astronomy

Jan. 20, 2013 Rise Set
Actual Time 7:46 AM CST 4:56 PM CST
Civil Twilight 7:12 AM CST 5:29 PM CST
Nautical Twilight 6:35 AM CST 6:07 PM CST
Astronomical Twilight 5:59 AM CST 6:43 PM CST
Moon 11:58 AM CST 2:17 AM CST
Length of Visible Light 10h 16m
Length of Day
9h 09m
Waxing Gibbous, 66% of the Moon is Illuminated
Jan 20
Waxing Gibbous
Jan 26
Full
Feb 3
Last Quarter
Feb 10
New
Feb 17
First Quarter

Hourly Weather History & Observations

Time (CST) Temp. Windchill Dew Point Humidity Pressure Visibility Wind Dir Wind Speed Gust Speed Precip Events Conditions
12:16 AM -2.2 °F -18.9 °F -11.2 °F 66% 30.10 in 10.0 mi WNW 10.4 mph 20.7 mph N/A   Scattered Clouds
12:36 AM -2.2 °F -18.9 °F -11.2 °F 66% 30.10 in 10.0 mi NW 10.4 mph - N/A   Clear
12:56 AM -2.2 °F -20.7 °F -11.2 °F 66% 30.10 in 10.0 mi NW 12.7 mph 20.7 mph N/A   Clear
2:35 AM -5.8 °F -21.2 °F -13.0 °F 71% 30.15 in 10.0 mi WNW 8.1 mph - N/A   Clear
2:56 AM -5.8 °F -18.4 °F -13.0 °F 71% 30.17 in 10.0 mi NW 5.8 mph - N/A   Clear
3:16 AM -5.8 °F -19.9 °F -13.0 °F 71% 30.17 in 10.0 mi WNW 6.9 mph - N/A   Clear
3:36 AM -7.6 °F -23.4 °F -14.8 °F 71% 30.18 in 10.0 mi West 8.1 mph - N/A   Clear
3:56 AM -7.6 °F -24.6 °F -14.8 °F 71% 30.18 in 10.0 mi WNW 9.2 mph - N/A   Clear
4:16 AM -7.6 °F -23.4 °F -14.8 °F 71% 30.19 in 10.0 mi WNW 8.1 mph - N/A   Clear
4:36 AM -7.6 °F -22.1 °F -14.8 °F 71% 30.19 in 10.0 mi West 6.9 mph - N/A   Clear
4:55 AM -7.6 °F -24.6 °F -14.8 °F 71% 30.20 in 10.0 mi West 9.2 mph - N/A   Clear
5:16 AM -7.6 °F -23.4 °F -14.8 °F 71% 30.21 in 10.0 mi WNW 8.1 mph - N/A   Clear
5:36 AM -7.6 °F -22.1 °F -14.8 °F 71% 30.21 in 10.0 mi WNW 6.9 mph - N/A   Clear
5:55 AM -9.4 °F -22.7 °F -16.6 °F 71% 30.21 in 10.0 mi West 5.8 mph - N/A   Clear
6:16 AM -9.4 °F -24.3 °F -16.6 °F 71% 30.21 in 10.0 mi WNW 6.9 mph - N/A   Clear
6:36 AM -9.4 °F -25.6 °F -16.6 °F 71% 30.21 in 10.0 mi WNW 8.1 mph - N/A   Scattered Clouds
6:56 AM -9.4 °F -25.6 °F -16.6 °F 71% 30.22 in 10.0 mi WNW 8.1 mph - N/A   Scattered Clouds
7:16 AM -9.4 °F -25.6 °F -16.6 °F 71% 30.23 in 10.0 mi WNW 8.1 mph - N/A   Scattered Clouds
7:36 AM -11.2 °F -26.4 °F -16.6 °F 77% 30.22 in 10.0 mi WNW 6.9 mph - N/A   Clear
7:55 AM -11.2 °F -24.8 °F -18.4 °F 70% 30.22 in 10.0 mi WNW 5.8 mph - N/A   Clear
8:16 AM -11.2 °F -23.0 °F -18.4 °F 70% 30.22 in 10.0 mi WNW 4.6 mph - N/A   Clear
8:36 AM -11.2 °F -24.8 °F -18.4 °F 70% 30.22 in 10.0 mi WNW 5.8 mph - N/A   Clear
9:36 AM -9.4 °F -25.6 °F -16.6 °F 71% 30.25 in 10.0 mi West 8.1 mph - N/A   Clear
9:55 AM -7.6 °F -22.1 °F -16.6 °F 65% 30.25 in 10.0 mi WNW 6.9 mph - N/A   Clear
10:16 AM -7.6 °F -25.7 °F -14.8 °F 71% 30.26 in 10.0 mi WNW 10.4 mph - N/A   Scattered Clouds
10:36 AM -5.8 °F -19.9 °F -14.8 °F 65% 30.26 in 10.0 mi WNW 6.9 mph - N/A   Mostly Cloudy
10:55 AM -5.8 °F -18.4 °F -14.8 °F 65% 30.25 in 10.0 mi West 5.8 mph - N/A   Mostly Cloudy
11:16 AM -5.8 °F -21.2 °F -14.8 °F 65% 30.25 in 5.0 mi West 8.1 mph - N/A   Haze
11:36 AM -5.8 °F -18.4 °F -14.8 °F 65% 30.25 in 3.0 mi West 5.8 mph - N/A Snow Light Snow
11:56 AM -4.0 °F -19.0 °F -14.8 °F 60% 30.23 in 4.0 mi West 8.1 mph - N/A   Haze
12:16 PM -4.0 °F -21.2 °F -14.8 °F 60% 30.23 in 3.0 mi West 10.4 mph - N/A Snow Light Snow
12:36 PM -2.2 °F -19.9 °F -13.0 °F 60% 30.22 in 4.0 mi West 11.5 mph - N/A   Haze
12:56 PM -2.2 °F -18.9 °F -13.0 °F 60% 30.21 in 10.0 mi WNW 10.4 mph - N/A   Overcast
1:16 PM -2.2 °F -16.8 °F -13.0 °F 60% 30.21 in 7.0 mi WSW 8.1 mph - N/A   Overcast
1:36 PM -2.2 °F -19.9 °F -13.0 °F 60% 30.20 in 5.0 mi West 11.5 mph - N/A   Haze
1:56 PM -2.2 °F -18.9 °F -13.0 °F 60% 30.19 in 7.0 mi West 10.4 mph - N/A   Overcast
2:36 PM -0.4 °F -14.7 °F -13.0 °F 55% 30.19 in 10.0 mi WSW 8.1 mph - N/A   Overcast
2:56 PM -0.4 °F -16.7 °F -13.0 °F 55% 30.18 in 10.0 mi West 10.4 mph 16.1 mph N/A   Mostly Cloudy
3:16 PM -0.4 °F -14.7 °F -14.8 °F 51% 30.18 in 7.0 mi West 8.1 mph - N/A   Scattered Clouds
4:16 PM -0.4 °F -16.7 °F -13.0 °F 55% 30.17 in 7.0 mi WSW 10.4 mph 17.3 mph N/A   Mostly Cloudy
4:36 PM -0.4 °F -12.0 °F -11.2 °F 60% 30.17 in 10.0 mi West 5.8 mph 10.4 mph N/A   Clear
4:56 PM -2.2 °F -15.6 °F -11.2 °F 66% 30.16 in 10.0 mi West 6.9 mph - N/A   Clear
5:16 PM -2.2 °F -14.2 °F -11.2 °F 66% 30.16 in 10.0 mi West 5.8 mph - N/A   Clear
5:36 PM -2.2 °F -14.2 °F -11.2 °F 66% 30.16 in 10.0 mi WSW 5.8 mph - N/A   Scattered Clouds
5:56 PM -2.2 °F -10.4 °F -11.2 °F 66% 30.16 in 10.0 mi WSW 3.5 mph - N/A   Clear
6:16 PM -5.8 °F -14.5 °F -13.0 °F 71% 30.16 in 10.0 mi WSW 3.5 mph - N/A   Clear
6:36 PM -4.0 °F -14.6 °F -11.2 °F 71% 30.15 in 10.0 mi WSW 4.6 mph - N/A   Clear
6:56 PM -5.8 °F -16.7 °F -11.2 °F 77% 30.15 in 10.0 mi West 4.6 mph - N/A   Scattered Clouds
7:16 PM -4.0 °F -17.8 °F -11.2 °F 71% 30.14 in 7.0 mi West 6.9 mph - N/A   Mostly Cloudy
7:35 PM -4.0 °F -17.8 °F -11.2 °F 71% 30.14 in 7.0 mi West 6.9 mph - N/A   Overcast
7:56 PM -4.0 °F -17.8 °F -11.2 °F 71% 30.13 in 10.0 mi WNW 6.9 mph - N/A   Scattered Clouds
8:15 PM -5.8 °F -19.9 °F -13.0 °F 71% 30.13 in 10.0 mi West 6.9 mph - N/A   Clear
8:36 PM -5.8 °F -24.4 °F -13.0 °F 71% 30.13 in 10.0 mi West 11.5 mph - N/A   Clear
8:56 PM -5.8 °F -26.0 °F -14.8 °F 65% 30.13 in 10.0 mi WNW 13.8 mph - N/A   Clear
9:16 PM -5.8 °F -23.4 °F -14.8 °F 65% 30.13 in 10.0 mi WNW 10.4 mph - N/A   Clear
9:36 PM -5.8 °F -23.4 °F -14.8 °F 65% 30.13 in 10.0 mi West 10.4 mph - N/A   Clear
9:56 PM -5.8 °F -24.4 °F -16.6 °F 60% 30.13 in 10.0 mi WNW 11.5 mph 18.4 mph N/A   Clear
10:16 PM -7.6 °F -25.7 °F -16.6 °F 65% 30.13 in 10.0 mi West 10.4 mph - N/A   Clear
10:36 PM -7.6 °F -26.6 °F -16.6 °F 65% 30.14 in 7.0 mi WNW 11.5 mph - N/A   Scattered Clouds
10:56 PM -7.6 °F -27.5 °F -16.6 °F 65% 30.14 in 7.0 mi WNW 12.7 mph 17.3 mph N/A   Scattered Clouds
11:16 PM -7.6 °F -27.5 °F -18.4 °F 59% 30.14 in 10.0 mi WNW 12.7 mph 18.4 mph N/A   Clear
11:36 PM -9.4 °F -30.6 °F -18.4 °F 65% 30.14 in 10.0 mi WNW 13.8 mph 17.3 mph N/A   Scattered Clouds